| time (UTC) | temp F | wind direction | speed MPH | gust MPH | rain 1hr in | rain 24hr in | rain mn in | humidity % | barometer mb |
| 20260508171516 | 68 | 203 | 3.0 | 8.0 | 0.00 | 0.00 | 0.00 | 43 | 1017.8 |
| 20260508170517 | 67 | 248 | 1.0 | 5.0 | 0.00 | 0.00 | 0.00 | 47 | 1017.6 |
| 20260508165536 | 67 | 203 | 1.0 | 4.0 | 0.00 | 0.00 | 0.00 | 44 | 1017.5 |
| 20260508164516 | 66 | 225 | 1.0 | 4.0 | 0.00 | 0.00 | 0.00 | 47 | 1017.6 |
| 20260508163516 | 65 | 203 | 1.0 | 4.0 | 0.00 | 0.00 | 0.00 | 44 | 1017.2 |
| 20260508162516 | 64 | 203 | 2.0 | 4.0 | 0.00 | 0.00 | 0.00 | 47 | 1017.5 |
| 20260508161516 | 63 | 0.0 | 2.0 | 0.00 | 0.00 | 0.00 | 48 | 1017.2 | |
| 20260508160516 | 62 | 203 | 1.0 | 4.0 | 0.00 | 0.00 | 0.00 | 50 | 1017.2 |
| 20260508155516 | 61 | 0.0 | 2.0 | 0.00 | 0.00 | 0.00 | 52 | 1016.9 | |
| 20260508154518 | 61 | 203 | 1.0 | 3.0 | 0.00 | 0.00 | 0.00 | 51 | 1016.8 |
| 20260508153516 | 61 | 180 | 1.0 | 4.0 | 0.00 | 0.00 | 0.00 | 54 | 1016.8 |
| 20260508152518 | 60 | 180 | 1.0 | 3.0 | 0.00 | 0.00 | 0.00 | 56 | 1017.2 |
| 20260508151536 | 59 | 0.0 | 2.0 | 0.00 | 0.00 | 0.00 | 53 | 1016.7 | |
| 20260508150516 | 59 | 0.0 | 1.0 | 0.00 | 0.00 | 0.00 | 51 | 1016.5 | |
| 20260508145519 | 58 | 0.0 | 2.0 | 0.00 | 0.00 | 0.00 | 55 | 1017.3 | |
| 20260508144517 | 57 | 0.0 | 0.0 | 0.00 | 0.00 | 0.00 | 56 | 1017.0 | |
| 20260508143516 | 56 | 0.0 | 1.0 | 0.00 | 0.00 | 0.00 | 57 | 1017.0 | |
| 20260508142537 | 56 | 0.0 | 0.0 | 0.00 | 0.00 | 0.00 | 53 | 1017.2 | |
| 20260508141517 | 55 | 0.0 | 2.0 | 0.00 | 0.00 | 0.00 | 59 | 1017.2 | |
| 20260508140516 | 53 | 0.0 | 0.0 | 0.00 | 0.00 | 0.00 | 57 | 1016.7 | |
| 20260508135519 | 52 | 0.0 | 1.0 | 0.00 | 0.00 | 0.00 | 58 | 1016.7 | |
| 20260508134516 | 52 | 68 | 1.0 | 3.0 | 0.00 | 0.00 | 0.00 | 59 | 1016.7 |
| 20260508133516 | 52 | 0.0 | 0.0 | 0.00 | 0.00 | 0.00 | 56 | 1016.6 | |
| 20260508132538 | 52 | 0.0 | 2.0 | 0.00 | 0.00 | 0.00 | 58 | 1016.5 | |
| 20260508131536 | 52 | 68 | 1.0 | 2.0 | 0.00 | 0.00 | 0.00 | 58 | 1016.4 |
| 20260508130516 | 52 | 0.0 | 2.0 | 0.00 | 0.00 | 0.00 | 60 | 1016.4 | |
| 20260508125516 | 52 | 68 | 2.0 | 3.0 | 0.00 | 0.00 | 0.00 | 59 | 1016.3 |
| 20260508124536 | 52 | 68 | 1.0 | 2.0 | 0.00 | 0.00 | 0.00 | 57 | 1016.3 |
| 20260508123518 | 52 | 68 | 1.0 | 4.0 | 0.00 | 0.00 | 0.00 | 56 | 1016.1 |
| 20260508122516 | 52 | 0.0 | 0.0 | 0.00 | 0.00 | 0.00 | 55 | 1016.3 | |
| 20260508121516 | 52 | 68 | 1.0 | 2.0 | 0.00 | 0.00 | 0.00 | 54 | 1016.3 |
| 20260508120518 | 53 | 68 | 1.0 | 2.0 | 0.00 | 0.00 | 0.00 | 55 | 1016.3 |
| 20260508115517 | 53 | 68 | 1.0 | 3.0 | 0.00 | 0.00 | 0.00 | 54 | 1016.2 |
| 20260508114519 | 53 | 0.0 | 0.0 | 0.00 | 0.00 | 0.00 | 54 | 1016.1 | |
| 20260508113516 | 53 | 0.0 | 0.0 | 0.00 | 0.00 | 0.00 | 54 | 1016.0 | |
| 20260508112516 | 53 | 0.0 | 1.0 | 0.00 | 0.00 | 0.00 | 54 | 1016.2 | |
| 20260508111518 | 53 | 68 | 2.0 | 4.0 | 0.00 | 0.00 | 0.00 | 53 | 1016.1 |
| 20260508110516 | 53 | 68 | 1.0 | 2.0 | 0.00 | 0.00 | 0.00 | 52 | 1016.1 |
| 20260508105537 | 53 | 68 | 1.0 | 4.0 | 0.00 | 0.00 | 0.00 | 52 | 1015.7 |
| 20260508104516 | 54 | 0.0 | 0.0 | 0.00 | 0.00 | 0.00 | 52 | 1015.7 | |
| 20260508103536 | 54 | 68 | 2.0 | 5.0 | 0.00 | 0.00 | 0.00 | 51 | 1016.1 |
| 20260508102517 | 54 | 0.0 | 2.0 | 0.00 | 0.00 | 0.00 | 51 | 1016.0 | |
| 20260508101517 | 54 | 68 | 1.0 | 2.0 | 0.00 | 0.00 | 0.00 | 50 | 1015.9 |
| 20260508100516 | 55 | 68 | 1.0 | 3.0 | 0.00 | 0.00 | 0.00 | 50 | 1016.3 |
| 20260508095516 | 54 | 0.0 | 3.0 | 0.00 | 0.00 | 0.00 | 50 | 1016.3 | |
| 20260508094516 | 55 | 68 | 1.0 | 3.0 | 0.00 | 0.00 | 0.00 | 52 | 1016.6 |
| 20260508093516 | 54 | 68 | 2.0 | 4.0 | 0.00 | 0.00 | 0.00 | 52 | 1016.2 |
| 20260508092518 | 55 | 68 | 1.0 | 4.0 | 0.00 | 0.00 | 0.00 | 52 | 1016.3 |
| 20260508091516 | 55 | 68 | 2.0 | 4.0 | 0.00 | 0.00 | 0.00 | 51 | 1016.3 |
| 20260508090517 | 56 | 90 | 1.0 | 3.0 | 0.00 | 0.00 | 0.00 | 49 | 1016.2 |
| 20260508085518 | 56 | 0.0 | 3.0 | 0.00 | 0.00 | 0.00 | 49 | 1016.2 | |
| 20260508084516 | 56 | 0.0 | 2.0 | 0.00 | 0.00 | 0.00 | 49 | 1016.4 | |
| 20260508083558 | 56 | 113 | 3.0 | 4.0 | 0.00 | 0.00 | 0.00 | 48 | 1016.4 |
| 20260508082516 | 56 | 90 | 1.0 | 4.0 | 0.00 | 0.00 | 0.00 | 48 | 1016.1 |
| 20260508081516 | 56 | 0.0 | 2.0 | 0.00 | 0.00 | 0.00 | 47 | 1016.0 | |
| 20260508080538 | 56 | 0.0 | 2.0 | 0.00 | 0.00 | 0.00 | 46 | 1016.0 | |
| 20260508075517 | 57 | 158 | 1.0 | 3.0 | 0.00 | 0.00 | 0.00 | 46 | 1015.9 |
| 20260508074516 | 57 | 0.0 | 0.0 | 0.00 | 0.00 | 0.00 | 46 | 1015.9 | |
| 20260508073516 | 57 | 0.0 | 2.0 | 0.00 | 0.00 | 0.00 | 46 | 1016.1 | |
| 20260508072516 | 57 | 0.0 | 0.0 | 0.00 | 0.00 | 0.00 | 44 | 1015.7 | |
| 20260508071516 | 58 | 0.0 | 0.0 | 0.00 | 0.00 | 0.00 | 44 | 1016.1 | |
| 20260508070536 | 58 | 0.0 | 0.0 | 0.00 | 0.00 | 0.00 | 42 | 1016.1 | |
| 20260508065518 | 58 | 0.0 | 2.0 | 0.00 | 0.00 | 0.00 | 41 | 1015.4 | |
| 20260508064516 | 59 | 0.0 | 1.0 | 0.00 | 0.00 | 0.00 | 41 | 1015.8 | |
| 20260508063518 | 59 | 45 | 3.0 | 5.0 | 0.00 | 0.00 | 0.00 | 40 | 1015.7 |
| 20260508062516 | 60 | 45 | 3.0 | 4.0 | 0.00 | 0.00 | 0.00 | 40 | 1015.5 |
| 20260508061516 | 60 | 45 | 4.0 | 5.0 | 0.00 | 0.00 | 0.00 | 40 | 1015.4 |
| 20260508060516 | 60 | 45 | 4.0 | 5.0 | 0.00 | 0.00 | 0.00 | 39 | 1015.4 |
| 20260508055516 | 60 | 68 | 4.0 | 5.0 | 0.00 | 0.00 | 0.00 | 39 | 1014.7 |
| 20260508054518 | 60 | 45 | 5.0 | 6.0 | 0.00 | 0.00 | 0.00 | 40 | 1014.7 |
| 20260508053516 | 61 | 68 | 3.0 | 4.0 | 0.00 | 0.00 | 0.00 | 38 | 1015.0 |
| 20260508052558 | 61 | 68 | 3.0 | 4.0 | 0.00 | 0.00 | 0.00 | 38 | 1015.0 |
| 20260508051516 | 61 | 68 | 3.0 | 5.0 | 0.00 | 0.00 | 0.00 | 38 | 1015.1 |
| 20260508050536 | 61 | 45 | 5.0 | 6.0 | 0.00 | 0.00 | 0.00 | 39 | 1014.8 |
| 20260508045517 | 60 | 45 | 3.0 | 5.0 | 0.00 | 0.00 | 0.00 | 39 | 1014.7 |
| 20260508044516 | 60 | 45 | 4.0 | 6.0 | 0.00 | 0.00 | 0.00 | 39 | 1014.8 |
| 20260508043518 | 60 | 68 | 5.0 | 7.0 | 0.00 | 0.00 | 0.00 | 40 | 1014.9 |
| 20260508042516 | 61 | 68 | 4.0 | 6.0 | 0.00 | 0.00 | 0.00 | 39 | 1014.3 |
| 20260508041536 | 61 | 68 | 1.0 | 4.0 | 0.00 | 0.00 | 0.00 | 38 | 1014.3 |
| 20260508040558 | 62 | 68 | 2.0 | 5.0 | 0.00 | 0.00 | 0.00 | 38 | 1014.6 |
| 20260508035516 | 62 | 45 | 2.0 | 5.0 | 0.00 | 0.00 | 0.00 | 36 | 1013.8 |
| 20260508034537 | 62 | 45 | 1.0 | 3.0 | 0.00 | 0.00 | 0.00 | 37 | 1013.8 |
| 20260508033516 | 62 | 45 | 2.0 | 3.0 | 0.00 | 0.00 | 0.00 | 36 | 1013.7 |
| 20260508032518 | 62 | 45 | 2.0 | 4.0 | 0.00 | 0.00 | 0.00 | 37 | 1013.6 |
| 20260508031517 | 62 | 45 | 2.0 | 3.0 | 0.00 | 0.00 | 0.00 | 38 | 1013.6 |
| 20260508030516 | 64 | 0 | 2.0 | 4.0 | 0.00 | 0.00 | 0.00 | 38 | 1014.0 |
| 20260508025518 | 65 | 0 | 2.0 | 4.0 | 0.00 | 0.00 | 0.00 | 34 | 1013.6 |
| 20260508024536 | 66 | 0 | 2.0 | 3.0 | 0.00 | 0.00 | 0.00 | 32 | 1013.8 |
| 20260508023516 | 67 | 0 | 3.0 | 5.0 | 0.00 | 0.00 | 0.00 | 31 | 1013.8 |
| 20260508022518 | 69 | 0 | 2.0 | 4.0 | 0.00 | 0.00 | 0.00 | 29 | 1013.6 |
| 20260508021517 | 71 | 0 | 2.0 | 4.0 | 0.00 | 0.00 | 0.00 | 27 | 1014.0 |
| 20260508020516 | 72 | 315 | 1.0 | 3.0 | 0.00 | 0.00 | 0.00 | 26 | 1013.9 |
| 20260508015517 | 73 | 315 | 3.0 | 4.0 | 0.00 | 0.00 | 0.00 | 24 | 1013.9 |
| 20260508014536 | 73 | 293 | 3.0 | 5.0 | 0.00 | 0.00 | 0.00 | 24 | 1014.0 |
| 20260508013537 | 73 | 315 | 2.0 | 5.0 | 0.00 | 0.00 | 0.00 | 23 | 1014.0 |
| 20260508012516 | 73 | 315 | 3.0 | 6.0 | 0.00 | 0.00 | 0.00 | 24 | 1014.1 |
| 20260508011516 | 72 | 315 | 2.0 | 4.0 | 0.00 | 0.00 | 0.00 | 25 | 1014.3 |
| 20260508010516 | 72 | 315 | 3.0 | 7.0 | 0.00 | 0.00 | 0.00 | 25 | 1014.4 |
| 20260508005516 | 72 | 338 | 2.0 | 5.0 | 0.00 | 0.00 | 0.00 | 26 | 1014.2 |
| 20260508004558 | 73 | 293 | 4.0 | 8.0 | 0.00 | 0.00 | 0.00 | 24 | 1014.1 |
| 20260508003517 | 73 | 293 | 2.0 | 5.0 | 0.00 | 0.00 | 0.00 | 25 | 1014.1 |
| 20260508002516 | 73 | 293 | 1.0 | 3.0 | 0.00 | 0.00 | 0.00 | 24 | 1014.3 |
| 20260508001539 | 74 | 293 | 3.0 | 7.0 | 0.00 | 0.00 | 0.00 | 23 | 1014.3 |
| 20260508000516 | 75 | 293 | 1.0 | 3.0 | 0.00 | 0.00 | 0.00 | 24 | 1014.8 |
| 20260507235518 | 75 | 315 | 2.0 | 5.0 | 0.00 | 0.00 | 0.00 | 23 | 1014.9 |
| 20260507234516 | 75 | 338 | 4.0 | 9.0 | 0.00 | 0.00 | 0.00 | 23 | 1015.0 |
| 20260507233518 | 75 | 293 | 5.0 | 11.0 | 0.00 | 0.00 | 0.00 | 22 | 1015.1 |
| 20260507232516 | 75 | 315 | 7.0 | 14.0 | 0.00 | 0.00 | 0.00 | 22 | 1015.8 |
| 20260507231516 | 75 | 315 | 4.0 | 8.0 | 0.00 | 0.00 | 0.00 | 22 | 1015.8 |
| 20260507230518 | 75 | 315 | 10.0 | 15.0 | 0.00 | 0.00 | 0.00 | 23 | 1015.9 |
| 20260507225516 | 76 | 248 | 5.0 | 10.0 | 0.00 | 0.00 | 0.00 | 25 | 1016.2 |
| 20260507224516 | 75 | 293 | 3.0 | 8.0 | 0.00 | 0.00 | 0.00 | 23 | 1016.3 |
| 20260507223619 | 75 | 248 | 6.0 | 14.0 | 0.00 | 0.00 | 0.00 | 23 | 1016.1 |
| 20260507222517 | 75 | 338 | 4.0 | 11.0 | 0.00 | 0.00 | 0.00 | 24 | 1016.2 |
| 20260507221516 | 75 | 338 | 5.0 | 9.0 | 0.00 | 0.00 | 0.00 | 22 | 1016.4 |
| 20260507220558 | 75 | 338 | 3.0 | 6.0 | 0.00 | 0.00 | 0.00 | 25 | 1016.5 |
| 20260507215538 | 75 | 293 | 3.0 | 7.0 | 0.00 | 0.00 | 0.00 | 24 | 1016.7 |
| 20260507214538 | 75 | 225 | 3.0 | 10.0 | 0.00 | 0.00 | 0.00 | 23 | 1016.8 |
| 20260507213539 | 76 | 293 | 2.0 | 9.0 | 0.00 | 0.00 | 0.00 | 22 | 1017.4 |
| 20260507212518 | 77 | 270 | 1.0 | 4.0 | 0.00 | 0.00 | 0.00 | 21 | 1017.6 |
| 20260507211516 | 76 | 135 | 3.0 | 5.0 | 0.00 | 0.00 | 0.00 | 26 | 1017.6 |
| 20260507210536 | 76 | 180 | 4.0 | 7.0 | 0.00 | 0.00 | 0.00 | 22 | 1017.7 |
| 20260507205518 | 76 | 180 | 5.0 | 8.0 | 0.00 | 0.00 | 0.00 | 25 | 1017.9 |
| 20260507204517 | 74 | 68 | 2.0 | 7.0 | 0.00 | 0.00 | 0.00 | 24 | 1017.7 |
| 20260507203536 | 74 | 180 | 5.0 | 11.0 | 0.00 | 0.00 | 0.00 | 23 | 1017.8 |
| 20260507202538 | 73 | 158 | 5.0 | 11.0 | 0.00 | 0.00 | 0.00 | 25 | 1018.5 |
| 20260507201516 | 72 | 113 | 3.0 | 7.0 | 0.00 | 0.00 | 0.00 | 27 | 1018.4 |
| 20260507200516 | 72 | 68 | 1.0 | 5.0 | 0.00 | 0.00 | 0.00 | 24 | 1018.4 |
| 20260507195518 | 73 | 135 | 4.0 | 8.0 | 0.00 | 0.00 | 0.00 | 23 | 1019.0 |
| 20260507194517 | 74 | 203 | 2.0 | 5.0 | 0.00 | 0.00 | 0.00 | 26 | 1019.5 |
| 20260507193519 | 73 | 135 | 2.0 | 7.0 | 0.00 | 0.00 | 0.00 | 27 | 1019.3 |
| 20260507192516 | 72 | 113 | 2.0 | 5.0 | 0.00 | 0.00 | 0.00 | 24 | 1019.4 |
| 20260507191516 | 71 | 203 | 4.0 | 7.0 | 0.00 | 0.00 | 0.00 | 26 | 1019.3 |
| 20260507190516 | 70 | 90 | 1.0 | 3.0 | 0.00 | 0.00 | 0.00 | 23 | 1019.3 |
| 20260507185517 | 71 | 158 | 2.0 | 8.0 | 0.00 | 0.00 | 0.00 | 25 | 1019.9 |
| 20260507184518 | 70 | 158 | 3.0 | 7.0 | 0.00 | 0.00 | 0.00 | 25 | 1019.7 |
| 20260507183516 | 68 | 113 | 2.0 | 9.0 | 0.00 | 0.00 | 0.00 | 27 | 1019.6 |
| 20260507182516 | 68 | 135 | 3.0 | 8.0 | 0.00 | 0.00 | 0.00 | 24 | 1019.7 |
| 20260507181517 | 69 | 135 | 3.0 | 9.0 | 0.00 | 0.00 | 0.00 | 25 | 1020.0 |
| 20260507180519 | 68 | 135 | 5.0 | 10.0 | 0.00 | 0.00 | 0.00 | 28 | 1020.1 |
| 20260507175518 | 67 | 113 | 4.0 | 10.0 | 0.00 | 0.00 | 0.00 | 27 | 1020.3 |
| 20260507174518 | 65 | 113 | 3.0 | 8.0 | 0.00 | 0.00 | 0.00 | 29 | 1020.1 |
| 20260507173516 | 63 | 135 | 3.0 | 7.0 | 0.00 | 0.00 | 0.00 | 30 | 1020.0 |
| 20260507172517 | 63 | 135 | 5.0 | 10.0 | 0.00 | 0.00 | 0.00 | 27 | 1020.0 |